User: anonymous   Login
Location: Bear Valley Community Church - Hurst
(32.8460°N, 97.1828°W)
Time: 00:04:37
(UTC+00:00)
Language:

SKYMED 2 - Orbit

View from above orbital plane
View from above orbital plane
View from above satellite
View from above satellite

Ground track
Ground track

The orbit data is extracted from the following two-line orbital elements,

1 32376U 07059A   22147.50729677 -.00003659  00000-0 -45352-3 0  9998
2 32376  97.8886 331.4721 0001251  93.7880 266.3470 14.82138062782600
Epoch (UTC): 27 May 2022 12:10:30
Eccentricity: 0.0001251
inclination: 97.8886°
perigee height: 622 km
apogee height: 623 km
right ascension of ascending node: 331.4721°
argument of perigee: 93.7880°
revolutions per day: 14.82138062
mean anomaly at epoch: 266.3470°
orbit number at epoch: 78260

The dashed part of the orbit path shows where the satellite is in the earth's shadow,  

DLR